Miscellaneous Local Product
Issued by NWS North Platte, NE

Home | Current Version | Previous Version | Text Only | Print | Product List | Glossary On
Versions: 1 2 3 4 5 6 7 8 9 10 11 12 13 14 15 16 17 18 19 20 21 22 23 24 25 26 27 28 29 30 31 32 33 34 35 36 37 38 39 40 41 42 43 44 45 46 47 48 49 50
000
AXUS43 KLBF 021310
MISLBF


WESTERN AND NORTH CENTRAL NEBRASKA HOURLY WEATHER ROUNDUP
NATIONAL WEATHER SERVICE NORTH PLATTE NE
800 AM CDT WED SEP 02 2015

NOTE: "FAIR" INDICATES FEW OR NO CLOUDS BELOW 12,000 FEET WITH NO
SIGNIFICANT WEATHER AND/OR OBSTRUCTIONS TO VISIBILITY.

NOTE: STATIONS NOT REPORTING VARIABLES SUCH AS SKY/WEATHER OR
PRESSURE ARE PROVIDED BY THE NEBRASKA DEPARTMENT OF
ROADS...RAWS...AND APRS NETWORKS...AND ARE NOT UNDER
NATIONAL WEATHER SERVICE QUALITY CONTROL.

...OBSERVATIONS IN AND NEAR THE EASTERN PANHANDLE OF NEBRASKA...

CITY           SKY/WX    TMP DP  RH WIND       PRES   REMARKS
PINE RIDGE     PTCLDY    56  47  71 CALM      29.91R
CHADRON        MOCLDY    59  47  64 CALM      29.91R
ALLIANCE       MOCLDY    54  47  77 CALM      29.97R
SIDNEY         CLEAR     61  43  51 W10       30.01R
CRESCENT LAKE    N/A     64  44  49 NW3         N/A
BIG SPRINGS      N/A     55  52  91 CALM        N/A
$$

...OBSERVATIONS IN NORTH CENTRAL NEBRASKA...

CITY           SKY/WX    TMP DP  RH WIND       PRES   REMARKS
VALENTINE      CLEAR     58  55  90 SW6       29.86R
THEDFORD       CLEAR     64  58  83 CALM      29.91R
AINSWORTH      CLEAR     64  60  85 SW5       29.86R
O`NEILL        SUNNY     67  64  92 S5        29.87R
ORD            CLEAR     62  59  90 CALM      29.88R
BROKEN BOW     CLEAR     64  61  90 CALM      29.89R
SPRINGVIEW       N/A     60  58  95 CALM        N/A
SARGENT          N/A     62  61  96 CALM        N/A
CHAMBERS         N/A     68  64  88 S5          N/A
EWING            N/A     68  61  77 CALM        N/A
$$

...OBSERVATIONS IN SOUTHWEST NEBRASKA AND FAR NORTHEAST COLORADO...

CITY           SKY/WX    TMP DP  RH WIND       PRES   REMARKS
WRAY           CLOUDY    59  53  78 W5        29.98R
HOLYOKE        FAIR      61  52  72 W7        29.97S
IMPERIAL       CLEAR     60  54  80 SW6       29.96R
OGALLALA       CLEAR     57  52  84 CALM      29.94R
NORTH PLATTE   CLEAR     60  57  89 CALM      29.91S
MCCOOK         CLEAR     62  57  83 CALM      29.91R
LEXINGTON      CLEAR     62  60  94 CALM      29.90S FOG
PAXTON           N/A     57  55  92 CALM        N/A
BRADY            N/A     60  58  92 CALM        N/A
CALLAWAY         N/A     63  62  98 CALM        N/A
$$

...OBSERVATIONS IN CENTRAL LINCOLN COUNTY AREA...

CITY           SKY/WX    TMP DP  RH WIND       PRES   REMARKS
N.P. AIRPORT   CLEAR     60  57  89 CALM      29.91S
N.P. DOWNTOWN    N/A     63  59  88 CALM        N/A
N.P. SOUTHEAST   N/A     64  59  83 CALM        N/A
N.P. HILLCREST   N/A     65  60  85 CALM        N/A
$$

...SOME OBSERVATIONS FROM AROUND THE REGION...

CITY           SKY/WX    TMP DP  RH WIND       PRES   REMARKS
DENVER         MOCLDY    63  44  50 SW9       30.10R
LARAMIE        CLEAR     51  40  65 S7        30.25R
CHEYENNE       CLEAR     66  40  38 W15       30.12R
SCOTTSBLUFF    PTCLDY    55  51  86 W6        29.98R
RAPID CITY     MOCLDY    61  52  72 NW3       29.85R
PIERRE         FOG       60  60 100 CALM      29.78R VSB 1/4
WINNER         FAIR      68  60  75 S8        29.82R
SIOUX FALLS    SUNNY     69  66  90 SE8       29.87R
OMAHA          MOSUNNY   74  68  81 S14       29.92R
GRAND ISLAND   SUNNY     68  62  81 S7        29.90R
KANSAS CITY    CLOUDY    76  65  68 NE5       30.06R
WICHITA        PTSUNNY   73  64  73 S12       30.01R
HAYS           CLEAR     73  55  53 S13       29.94R
LIBERAL        PTCLDY    75  54  46 S14       30.01R
GOODLAND       CLEAR     63  56  78 W6        29.98R
$$



USA.gov is the U.S. government's official web portal to all federal, state and local government web resources and services.